User: anonymous   Login
Location: Unspecified
(0.0000°N, 0.0000°E)
Time: 01:06:13
(UTC+00:00)
Language:

AEHF 3 (USA 246) - Orbit

View from above orbital plane
View from above orbital plane
View from above satellite
View from above satellite

Ground track
Ground track

The orbit data is extracted from the following two-line orbital elements,

1 39256U 13050A   23088.40992709  .00000128  00000-0  00000-0 0  9996
2 39256   2.3788  73.7808 0054162 189.9763 275.4342  1.00278507 33888
Epoch (UTC): 29 March 2023 09:50:17
Eccentricity: 0.0054162
inclination: 2.3788°
perigee height: 35556 km
apogee height: 36012 km
right ascension of ascending node: 73.7808°
argument of perigee: 189.9763°
revolutions per day: 1.00278507
mean anomaly at epoch: 275.4342°
orbit number at epoch: 3388

The dashed part of the orbit path shows where the satellite is in the earth's shadow,  

DLR